New Bedford Regional Airport
KEWB : now visible

Airfield :











YOU CAN JOIN US ON...

 
LOGIN :

Register | Disclaimer

   EN    FR    IT 

 









Legend :    VFR   Marginal VFR   IFR   Intensive IFR   Very Intensive IFR
Visi :
Ceiling :
>= 8 km
>= 3000ft
5 to 8 km
1000 to 3000 ft
1500m to 5 km
500 to 1000 ft
800 to 1500m
200 to 500 ft
< 800m
< 200 ft
Symbols :   Thunderstorms  Fog  Heavy snow  Heavy precipitations  Wind > 20 kt






- Airport Elevation : 80 ft
- IATA code : EWB


KEWB - New Bedford Regional

CURRENT METAR :
  • 291553Z 22013KT 2SM BR OVC003 18/18 A3005 RMK AO2 RAE1458 SLP176 P0000 T01830183

EXPIRED METARs :
  • 291510Z 21010KT 2SM BR OVC004 18/18 A3006 RMK AO2 RAE1458 P0000 T01830183
  • 291453Z 21012KT 2SM -RA BR OVC005 19/18 A3006 RMK AO2 RAE1358B20 SLP179 P0000 60000 T01890183 58009
  • 291353Z 20011KT 2 1/2SM R05/4500VP6000FT -RA BR OVC002 18/18 A3007 RMK AO2 RAB38 SLP183 P0000 T01780178

TAF N/A
KZBW FIR / North America



MET'MAP, your aeronautical weather chart ! - Copyright ORBIFLY December 2007 - Disclaimer

ORBIFLY MET'MAP TEAM :

Programming & Development : Alexandra Zaïnal
Concept & original design : Baudouin d'Aumeries
Assistance for programming : Marc-Olivier Méhu
Technical & hardware support : Manuel Goepfert

Contact : metmap@orbifly.com




SOURCES & CREDITS :

   NOAA       Earth
Advisory